Home > Weather > Foz do Iguaçu > Past weeks

Flag for Brazil Weather for the Past 2 Weeks in Foz do Iguaçu, Paraná, Brazil

Now
90 °F

Passing clouds.


Feels Like: 96 °F
Forecast: 73 / 93 °F
Wind: 10 mph from North

Location: Foz Do Iguacu Aeroporto

Current Time: Feb 7, 2016 at 2:04:14 PM

Latest Report: Feb 7, 2016 at 1:00 PM


Visibility: N/A

Pressure: 29.98 "Hg

Humidity: 55%

Dew point: 72 °F

Location of Foz do IguaçuLocation

Historic Weather in Foz do Iguaçu — Graph

°F

Foz do Iguaçu Temperature Yesterday

Maximum temperature yesterday: 93 °F (at 3:00 PM)
Minimum temperature yesterday: 73 °F (at 4:00 AM)
Average temperature yesterday: 81 °F

High & Low Weather Summary for the Past Weeks

 TemperatureHumidityPressure
High99 °F (Jan 24, 6:00 PM)100% (Jan 27, 3:00 AM)30.04 "Hg (Jan 27, 3:00 AM)
Low36 °F (Feb 3, 7:00 PM)25% (Jan 24, 6:00 PM)29.68 "Hg (Jan 24, 6:00 PM)
Average78 °F79%29.88 "Hg
* Reported Jan 23 1:00 PM — Feb 7 1:00 PM, Foz do Iguaçu, Weather by CustomWeather, © 2016

Note: Actual official high and low records may vary slightly from our data, if they occured in-between our weather recording intervals... More about our weather records

Advertising

Foz do Iguaçu Weather History for the Previous 24 Hours

 ConditionsComfort  
Time TempWeatherWind HumidityBarometerVisibility
1:00 PM
Sun, Feb 7
90 °FPassing clouds.10 mph55%29.98 "HgN/A
12:00 PM88 °FSunny.14 mph59%29.98 "Hg10 mi
11:00 AM86 °FSunny.8 mph66%29.98 "Hg10 mi
10:00 AM82 °FSunny.5 mph74%29.98 "Hg10 mi
9:00 AM77 °FSunny.6 mph83%29.98 "Hg10 mi
8:00 AM73 °FSunny.3 mph89%29.95 "Hg10 mi
7:00 AM72 °FClear.2 mph94%29.95 "Hg10 mi
6:00 AM72 °FPassing clouds.5 mph94%29.92 "HgN/A
5:00 AM73 °FPassing clouds.7 mph89%29.92 "HgN/A
4:00 AM73 °FPassing clouds.6 mph100%29.92 "HgN/A
3:00 AM75 °FPartly cloudy.7 mph83%29.95 "HgN/A
2:00 AM73 °FPartly cloudy.3 mph94%29.98 "HgN/A
1:00 AM73 °FPartly cloudy.2 mph94%30.01 "HgN/A
12:00 AM73 °FPartly cloudy.1 mph94%30.01 "HgN/A
11:00 PM
Sat, Feb 6
75 °FPartly cloudy.2 mph89%29.98 "HgN/A
10:00 PM75 °FPartly cloudy.6 mph89%29.98 "HgN/A
9:00 PM77 °FPartly cloudy.6 mph83%29.98 "HgN/A
8:00 PM79 °FScattered clouds.6 mph79%29.95 "HgN/A
7:00 PM82 °FScattered clouds.9 mph74%29.95 "HgN/A
6:00 PM86 °FScattered clouds.9 mph70%29.92 "HgN/A
5:00 PM88 °FScattered clouds.6 mph66%29.92 "HgN/A
4:00 PM91 °FScattered clouds.9 mph52%29.95 "HgN/A
3:00 PM93 °FScattered clouds.10 mph49%29.98 "HgN/A
2:00 PM91 °FScattered clouds.12 mph46%30.01 "HgN/A
Weather by CustomWeather, © 2016

See weather overviewHow to use our weather pages